Location: Bletchingley
(51.2333°N, 0.1000°W)
Time: 21:54:47
(UTC+00:00)

Meteor 2-13 Rocket - Pass Details

Date: 18 September 2020
Orbit: 936 x 957 km, 82.5° (Epoch: 20 October)

Event Time Altitude Azimuth Distance (km) Brightness Sun altitude
Rises 19:56:14 0° 350° (N) 3,652 8.0 -17.3°
Reaches altitude 10° 19:58:46 10° 352° (N) 2,702 7.3 -17.7°
Maximum altitude 20:04:58 73° 78° (ENE) 1,003 4.4 -18.6°
Enters shadow 20:09:02 22° 159° (SSE) 1,936 5.6 -19.1°
